Tracking 19908 objects as of 18-Oct-2019
HD Live streaming from Space Station
objects crossing your sky now

SL-3 R/B

Track SL-3 R/B now!
10-day predictions
SL-3 R/B is classified as:


NORAD ID: 12904
Int'l Code: 1981-103B
Perigee: 536.2 km
Apogee: 576.7 km
Inclination: 81.2 °
Period: 95.6 minutes
Semi major axis: 6927 km
RCS: 5.653 m2 (large)
Launch date: October 13, 1981
Source: Commonwealth of Independent States (former USSR) (CIS)
Launch site: PLESETSK MISSILE AND SPACE COMPLEX (PKMTR)

Note: This is a ROCKET BODY
aabbcc
Your satellite tracking list
Your tracking list is empty




NASA's NSSDC Master Catalog

Two Line Element Set (TLE):
1 12904U 81103B   19291.22371617 -.00000139  00000-0 -11210-4 0  9994
2 12904  81.1802  20.9717 0029205 136.3044 224.0499 15.05709974621177
Source of the keplerian elements: AFSPC